Probability
0 0 0 0 0 0 0 0 0 0 0 0 0 0 3 23 32 32 32 32 26 23 26 26 26 29 23 23 16 19 19 23 19 16 16 16 16 13 13 6 6 3 0 0
0 0 0 0 0 0 0 0 0 0 0 0 0 0 0 10 19 23 29 32 23 19 19 16 23 23 23 16 16 16 16 19 23 19 13 3 6 10 10 6 3 3 0 0
0 0 0 0 0 0 0 0 0 0 0 0 0 0 0 0 13 16 23 19 16 16 19 19 13 16 19 19 19 19 16 19 16 13 3 3 3 3 3 6 3 3 3 0
0 0 0 0 0 0 0 0 0 0 0 0 0 0 0 0 0 6 10 10 16 16 19 19 13 10 13 19 19 19 13 19 16 13 10 3 3 3 3 3 3 3 3 0
0 0 0 0 0 0 0 0 0 0 0 0 0 0 0 0 0 0 6 10 10 19 16 16 10 13 6 10 16 16 16 13 13 10 10 6 3 3 3 3 3 3 3 0
0 0 0 0 0 0 0 0 0 0 0 0 0 0 0 0 0 0 0 6 13 16 16 13 13 6 6 10 10 19 19 16 10 13 10 10 3 3 3 3 3 3 3 0
0 0 0 0 0 0 0 0 0 0 0 0 0 0 0 0 0 0 0 3 6 13 10 10 10 6 6 6 10 16 16 16 10 13 13 13 3 3 3 3 3 3 3 0
0 0 0 0 0 0 0 0 0 0 0 0 0 0 0 0 0 0 0 3 6 6 6 6 10 10 10 10 16 19 16 16 10 10 13 10 6 3 3 3 3 3 3 3
0 0 0 0 0 0 0 0 0 0 0 0 0 0 0 0 0 0 3 3 6 3 3 6 6 6 6 10 13 13 16 13 10 13 13 16 6 3 3 3 3 3 3 3
0 0 0 0 0 0 0 0 0 0 0 0 0 0 0 0 0 0 3 6 6 3 0 0 3 3 6 10 16 16 16 16 13 13 13 13 3 3 3 3 3 3 3 3
0 0 0 0 0 0 0 0 0 0 0 0 0 0 0 0 0 0 0 3 3 0 0 0 0 0 3 6 13 16 16 16 13 13 10 10 3 3 3 3 3 3 3 0
0 0 0 0 0 0 0 0 0 0 0 0 0 0 0 0 0 0 0 0 0 0 0 0 0 0 0 3 13 13 19 16 16 16 10 10 3 0 0 0 3 0 0 0
0 0 0 0 0 0 0 0 0 0 0 0 0 0 0 0 0 0 0 0 0 0 0 0 0 0 3 3 10 13 16 19 16 13 13 10 0 0 0 0 0 0 0 0
0 0 0 0 0 0 0 0 0 0 0 0 0 0 0 0 0 0 0 0 0 0 0 0 0 3 6 6 6 13 19 16 13 13 16 13 0 0 3 3 3 3 3 0
0 0 0 0 0 0 0 0 0 0 0 0 0 0 0 0 0 0 0 0 0 0 0 0 0 0 6 10 10 13 13 13 10 13 10 13 6 0 0 3 3 3 3 3
0 0 0 0 0 0 0 0 0 0 0 0 0 0 0 0 0 0 0 0 0 0 0 0 0 0 0 10 13 13 16 10 13 16 16 10 6 3 0 3 3 3 3 3
0 0 0 0 0 0 0 0 0 0 0 0 0 0 0 0 0 0 0 0 0 0 0 0 0 0 0 0 13 10 6 10 13 16 19 13 6 6 10 6 3 3 3 0
0 0 0 0 0 0 0 0 0 0 0 0 0 0 3 3 0 0 0 0 0 0 0 0 0 0 3 3 6 6 3 10 13 23 23 16 13 10 6 6 3 0 0 0
0 0 0 0 0 0 0 0 0 0 0 0 0 3 3 6 3 3 3 0 0 0 0 0 0 0 3 3 3 3 3 10 13 16 13 13 13 13 6 13 3 3 0 0
0 0 0 0 0 0 0 0 0 0 0 3 3 3 3 3 3 3 3 0 0 0 0 0 3 3 3 3 3 3 6 6 0 3 3 10 13 13 6 6 3 0 0 0
0 0 0 0 0 0 0 0 0 0 0 3 3 3 0 3 0 0 0 0 0 0 0 0 0 3 3 0 3 3 3 0 0 0 3 3 3 3 3 3 3 0 0 0
0 0 0 0 0 0 0 0 0 0 0 3 3 0 0 0 0 0 0 0 0 0 0 0 0 0 0 0 0 0 0 0 0 0 0 0 0 3 3 3 3 3 3 0
0 0 0 0 0 0 0 0 0 0 0 0 0 0 0 0 0 0 0 0 0 0 0 0 0 0 0 0 0 0 0 0 0 0 0 0 0 0 0 3 3 3 3 0
0 0 0 0 0 0 0 0 0 0 0 0 0 0 0 0 0 0 0 0 0 0 0 0 0 0 0 0 0 0 0 0 0 0 0 0 0 0 0 0 0 3 3 0
0 0 0 0 0 0 0 0 0 0 0 0 0 0 0 0 0 0 0 0 0 0 0 0 0 0 0 0 0 0 0 0 0 0 0 0 0 0 0 0 0 0 0 0
0 0 0 0 0 0 0 0 0 0 0 0 0 0 0 0 0 0 0 0 0 0 0 0 0 0 0 0 0 0 0 0 0 0 0 0 0 0 0 0 0 0 0 0
Height
5859 5861 5860 5859 5859 5860 5860 5861 5861 5861 5859 5858 5857 5856 5854 5852 5849 5846 5844 5840 5838 5835 5831 5828 5825 5825 5826 5827 5828 5830 5833 5835 5839 5842 5846 5850 5854 5857 5860 5862 5865 5867 5868 5870
5856 5856 5855 5855 5856 5857 5857 5858 5858 5858 5856 5855 5854 5853 5852 5849 5846 5844 5841 5838 5836 5833 5830 5827 5825 5824 5825 5826 5827 5828 5831 5834 5837 5842 5845 5849 5852 5856 5859 5861 5863 5865 5867 5869
5850 5852 5850 5851 5852 5854 5854 5855 5855 5855 5854 5853 5852 5852 5849 5847 5844 5841 5839 5836 5834 5832 5829 5827 5825 5824 5824 5824 5825 5826 5828 5832 5836 5840 5844 5847 5851 5854 5857 5860 5862 5864 5866 5868
5845 5846 5847 5848 5849 5850 5851 5852 5851 5851 5851 5850 5850 5849 5848 5844 5841 5839 5836 5834 5832 5830 5828 5826 5825 5823 5822 5822 5823 5825 5827 5830 5834 5838 5842 5846 5849 5853 5855 5858 5860 5862 5864 5866
5841 5842 5842 5844 5846 5846 5848 5848 5848 5848 5848 5848 5848 5846 5846 5842 5839 5837 5835 5833 5831 5829 5827 5826 5824 5823 5822 5821 5822 5824 5826 5829 5833 5836 5840 5844 5847 5851 5854 5856 5859 5861 5863 5865
5836 5837 5838 5841 5842 5843 5844 5845 5846 5846 5846 5846 5846 5844 5844 5840 5838 5835 5833 5832 5830 5828 5827 5826 5824 5823 5822 5821 5822 5823 5825 5828 5832 5835 5839 5843 5846 5849 5852 5854 5857 5860 5862 5864
5832 5833 5835 5836 5838 5839 5841 5842 5843 5843 5843 5843 5843 5842 5842 5839 5837 5834 5833 5831 5830 5828 5826 5825 5824 5823 5822 5822 5822 5823 5825 5828 5831 5834 5837 5841 5844 5847 5850 5853 5855 5858 5860 5863
5827 5830 5831 5832 5834 5835 5836 5838 5839 5840 5840 5840 5840 5839 5840 5838 5836 5834 5832 5831 5830 5828 5827 5825 5824 5823 5823 5823 5823 5823 5825 5828 5830 5833 5836 5839 5843 5846 5848 5851 5854 5856 5859 5861
5822 5825 5826 5828 5829 5831 5832 5834 5835 5836 5836 5836 5837 5838 5838 5836 5834 5833 5831 5830 5829 5828 5827 5826 5825 5824 5824 5824 5824 5824 5826 5828 5830 5833 5836 5838 5841 5844 5847 5849 5852 5854 5856 5858
5817 5820 5822 5823 5825 5826 5828 5829 5831 5831 5832 5832 5833 5834 5835 5834 5832 5831 5830 5829 5828 5828 5827 5826 5825 5824 5824 5824 5825 5825 5827 5828 5830 5832 5834 5837 5839 5842 5844 5847 5849 5851 5853 5855
5812 5815 5818 5819 5820 5822 5824 5825 5826 5827 5828 5828 5829 5833 5832 5831 5830 5829 5829 5828 5827 5826 5826 5825 5824 5824 5824 5824 5825 5825 5827 5828 5830 5832 5833 5835 5837 5839 5842 5844 5847 5849 5851 5852
5806 5809 5812 5815 5816 5817 5818 5820 5821 5823 5824 5824 5825 5831 5829 5828 5827 5827 5827 5826 5825 5825 5824 5824 5824 5824 5824 5824 5825 5825 5826 5827 5829 5831 5832 5834 5835 5837 5839 5841 5843 5846 5848 5849
5800 5802 5805 5808 5812 5813 5813 5814 5816 5818 5819 5820 5821 5826 5825 5824 5824 5824 5824 5824 5823 5823 5822 5823 5823 5823 5823 5824 5824 5824 5825 5826 5828 5829 5831 5832 5833 5834 5835 5838 5840 5842 5844 5845
5793 5794 5797 5800 5803 5805 5806 5809 5810 5812 5813 5814 5817 5819 5820 5820 5820 5820 5821 5821 5821 5821 5820 5820 5821 5821 5822 5822 5823 5823 5824 5825 5826 5828 5829 5830 5830 5831 5833 5835 5837 5838 5839 5840
5785 5786 5788 5790 5793 5796 5798 5801 5803 5805 5807 5809 5812 5813 5815 5816 5816 5817 5817 5818 5817 5817 5817 5817 5818 5819 5819 5820 5820 5821 5822 5823 5824 5825 5826 5827 5828 5829 5830 5831 5832 5833 5834 5834
5776 5778 5780 5781 5783 5785 5788 5792 5795 5798 5800 5803 5805 5808 5810 5810 5811 5812 5813 5813 5813 5813 5814 5814 5815 5816 5816 5817 5818 5818 5819 5820 5821 5821 5822 5823 5824 5825 5825 5826 5827 5827 5828 5828
5767 5769 5770 5772 5774 5774 5777 5784 5787 5790 5793 5796 5798 5802 5803 5805 5806 5807 5808 5808 5809 5810 5810 5811 5811 5812 5812 5813 5814 5815 5815 5815 5816 5817 5817 5818 5819 5820 5820 5821 5821 5821 5821 5821
5758 5759 5760 5761 5764 5764 5772 5774 5778 5781 5784 5787 5790 5794 5796 5798 5800 5801 5802 5803 5804 5805 5806 5806 5806 5807 5808 5809 5809 5810 5811 5811 5811 5812 5813 5813 5813 5814 5814 5815 5815 5814 5814 5814
5749 5750 5751 5752 5753 5755 5761 5764 5767 5771 5775 5779 5782 5785 5788 5790 5793 5795 5796 5797 5798 5799 5800 5801 5801 5802 5803 5804 5805 5805 5806 5806 5806 5806 5807 5807 5808 5808 5808 5808 5808 5807 5807 5807
5741 5742 5743 5743 5745 5747 5753 5756 5758 5762 5765 5771 5774 5777 5780 5783 5786 5788 5789 5790 5792 5793 5794 5795 5796 5796 5797 5798 5799 5800 5800 5800 5801 5801 5800 5801 5801 5802 5801 5801 5800 5799 5799 5798
5733 5734 5735 5736 5736 5739 5744 5746 5749 5754 5759 5762 5765 5769 5772 5775 5778 5780 5782 5783 5785 5786 5787 5788 5789 5790 5791 5792 5793 5794 5794 5794 5794 5794 5794 5794 5794 5794 5793 5793 5792 5791 5789 5788
5726 5727 5728 5728 5730 5734 5736 5738 5741 5745 5749 5753 5757 5761 5764 5767 5769 5772 5774 5776 5777 5779 5780 5781 5782 5783 5785 5786 5787 5787 5787 5787 5787 5787 5787 5786 5786 5786 5785 5784 5783 5782 5781 5779
5719 5720 5721 5722 5725 5726 5728 5730 5733 5737 5741 5745 5749 5753 5756 5759 5762 5764 5766 5768 5770 5771 5773 5774 5775 5777 5778 5779 5780 5780 5781 5780 5780 5779 5779 5779 5778 5777 5776 5775 5774 5772 5771 5770
5714 5714 5714 5716 5717 5719 5721 5724 5727 5730 5734 5738 5741 5745 5749 5752 5754 5757 5759 5760 5762 5764 5765 5767 5768 5770 5771 5772 5773 5773 5773 5773 5773 5772 5771 5770 5769 5768 5767 5765 5764 5762 5761 5759
5708 5708 5709 5710 5712 5714 5716 5718 5721 5724 5728 5731 5735 5738 5742 5745 5748 5750 5752 5753 5755 5757 5758 5760 5762 5763 5764 5765 5765 5765 5765 5765 5764 5764 5763 5761 5760 5759 5757 5755 5754 5751 5749 5748
5703 5703 5704 5706 5708 5710 5712 5714 5717 5720 5723 5726 5729 5732 5735 5738 5741 5743 5745 5747 5749 5751 5752 5754 5756 5757 5757 5758 5758 5758 5757 5757 5756 5755 5754 5752 5751 5749 5747 5745 5743 5741 5739 5737
Wind_Speed
19 18 17 18 18 17 17 17 16 17 17 16 15 15 16 17 19 19 18 19 18 18 16 12 8 6 6 7 10 13 15 17 18 19 18 18 17 16 14 13 12 11 10 9
19 17 20 21 19 18 18 18 18 18 18 17 15 16 17 18 18 17 17 17 18 18 15 11 7 5 5 7 9 14 17 17 17 19 19 18 17 16 15 14 13 12 11 9
19 19 22 21 20 19 19 19 18 18 19 18 16 15 17 18 17 17 17 17 18 17 14 11 7 5 6 8 10 13 17 18 18 20 20 18 17 17 17 15 14 13 11 10
20 21 22 21 20 20 19 20 20 19 19 17 16 16 16 18 17 17 16 15 15 14 12 10 7 5 5 7 10 13 16 18 20 20 20 19 17 17 16 16 15 14 12 11
20 21 23 21 20 21 20 21 21 19 19 17 16 16 15 17 17 15 14 12 13 12 10 8 6 4 4 6 9 12 16 18 20 20 20 19 18 17 17 16 15 15 14 12
20 22 22 21 20 21 20 20 20 20 19 17 15 15 14 15 15 13 10 10 11 11 9 7 5 3 3 5 8 11 15 17 18 19 19 19 18 18 17 16 16 16 15 13
20 21 20 20 20 20 20 20 20 20 18 16 14 14 13 14 13 11 9 9 10 9 7 6 5 4 3 4 7 11 13 15 17 18 19 19 18 18 18 17 17 16 15 14
18 18 19 18 18 20 21 21 21 20 19 17 15 12 12 12 11 10 9 8 9 8 7 6 5 3 3 4 6 8 12 13 15 16 18 18 18 18 17 17 17 16 16 15
19 17 18 19 19 20 21 22 22 21 20 18 15 11 10 12 11 10 9 9 8 8 7 6 5 3 2 3 6 9 10 12 13 15 16 17 17 17 17 17 17 16 16 16
22 20 20 20 21 21 22 23 23 23 22 20 15 11 10 11 11 10 9 9 9 8 7 6 5 4 2 2 4 7 10 11 11 12 14 15 16 17 17 17 17 17 17 16
25 23 21 22 22 22 23 23 23 24 24 22 18 12 10 11 11 9 9 9 9 9 8 7 6 4 3 2 4 6 8 10 10 11 12 14 15 16 17 18 17 17 17 18
28 26 24 24 25 25 26 26 25 25 23 23 21 14 12 12 12 11 10 10 10 10 9 8 7 6 5 4 4 5 6 8 10 11 12 14 15 16 17 18 18 18 18 18
31 31 28 27 27 27 28 28 27 27 26 25 22 17 15 14 13 12 12 12 12 11 9 9 8 8 7 6 6 6 7 8 9 11 12 12 14 16 17 18 18 19 20 20
35 34 33 31 29 29 29 29 29 28 28 27 24 20 17 16 14 14 13 13 13 13 12 12 11 10 9 9 9 9 9 10 10 11 12 13 14 15 16 18 18 20 21 22
39 38 37 36 34 33 32 31 31 31 29 28 24 21 19 17 16 15 15 14 14 14 14 13 13 12 12 12 12 12 12 13 13 14 14 16 16 17 18 19 20 22 24 25
41 41 41 41 39 38 36 33 33 32 30 29 26 23 21 19 18 17 17 16 15 15 15 15 15 15 15 14 14 14 14 15 16 16 17 18 18 19 20 21 22 24 25 27
41 41 42 42 42 42 40 35 34 34 32 30 28 25 24 22 21 20 20 18 17 17 17 17 16 16 16 16 17 16 16 17 17 18 19 19 20 20 21 22 23 24 26 28
38 40 42 42 42 44 40 37 36 35 34 32 30 27 26 24 23 23 21 20 20 20 19 19 19 18 18 18 19 18 18 18 18 19 21 21 21 22 23 24 24 25 26 28
34 35 37 39 40 40 37 36 36 36 35 32 30 28 27 25 24 23 23 22 22 22 21 21 20 20 20 20 20 20 20 20 19 20 22 23 23 24 25 25 26 27 28 28
30 32 33 35 36 36 34 34 34 35 34 30 29 29 28 26 26 24 23 23 23 22 22 22 22 22 21 21 21 21 21 21 21 22 23 25 26 26 27 27 28 29 29 30
27 29 30 32 33 32 30 30 32 33 30 29 28 28 28 26 26 25 25 24 23 23 23 23 24 23 22 22 22 22 22 22 23 24 25 25 27 28 29 29 30 31 32 33
25 26 27 29 29 28 26 27 28 29 28 28 27 28 28 27 26 25 24 24 23 23 23 23 23 23 22 21 22 22 23 24 25 25 26 27 27 28 29 30 31 32 33 35
22 23 24 25 25 24 24 24 24 25 25 26 26 27 26 26 26 26 25 24 24 24 24 24 24 22 22 23 23 23 23 24 25 26 26 27 28 29 30 31 33 34 34 35
19 20 21 21 21 20 20 22 23 24 24 24 25 25 24 24 24 25 24 23 23 25 25 24 23 22 22 22 22 23 24 24 25 26 27 28 29 30 31 32 34 35 36 37
17 18 18 17 17 18 18 19 21 22 23 23 23 23 24 23 24 23 22 22 23 24 25 24 23 23 22 22 23 24 25 26 27 28 28 29 30 31 32 34 35 36 37 38
13 15 17 15 14 15 15 17 18 20 21 21 20 21 23 23 23 24 22 21 22 22 23 23 22 22 22 23 24 25 26 27 28 29 30 30 31 32 32 34 35 36 37 38
Wind_Direction
276 271 265 260 260 259 262 265 266 272 281 287 298 311 318 320 319 319 321 326 330 331 328 322 307 272 249 220 209 208 206 204 204 202 200 202 205 206 209 211 212 211 212 214
270 265 258 257 258 257 260 264 268 272 280 288 300 311 316 317 319 319 320 323 326 328 326 321 313 288 242 218 214 212 206 202 199 197 196 198 201 204 207 209 209 211 214 212
263 259 258 258 257 257 260 266 270 274 281 291 300 311 316 319 318 318 319 321 322 322 321 320 311 296 240 220 216 210 205 200 197 195 196 200 203 205 208 209 209 208 209 210
257 255 256 257 256 256 255 262 268 274 283 291 303 312 318 322 322 318 317 318 318 322 322 317 303 289 247 225 213 206 202 199 197 196 198 201 204 207 209 210 209 206 206 208
250 248 251 252 250 252 255 260 267 275 282 290 301 309 322 322 322 321 317 319 319 319 321 321 311 280 232 214 206 205 198 199 201 200 201 202 203 207 207 209 208 207 206 208
245 246 247 248 246 250 255 259 267 273 280 287 299 307 321 324 326 325 322 322 325 322 319 319 316 286 230 206 202 199 194 196 197 201 202 201 203 206 205 206 208 208 210 212
241 243 244 242 242 247 252 257 264 270 275 284 294 305 320 323 326 326 328 330 330 327 322 323 324 292 247 213 200 197 195 194 198 202 202 204 206 208 208 209 208 211 215 219
236 236 239 239 239 242 245 251 259 267 271 276 284 299 317 320 324 322 318 318 326 327 323 322 323 309 244 219 203 193 193 194 198 204 208 210 209 210 211 213 214 216 220 223
233 229 233 234 235 237 240 245 254 263 270 274 279 289 305 309 314 312 311 309 313 316 314 310 318 314 269 223 204 195 194 195 198 203 207 212 213 213 214 217 220 222 225 229
238 231 227 231 234 237 240 243 248 257 266 271 275 283 300 302 301 298 300 302 303 305 304 299 297 296 289 218 203 200 199 199 202 207 209 212 214 217 219 221 224 227 230 232
247 242 231 232 233 236 241 243 248 254 261 268 274 280 292 298 297 292 292 298 301 299 295 287 277 268 258 233 210 200 200 205 210 214 214 216 218 222 225 227 227 232 235 237
254 253 245 239 239 240 242 245 249 254 260 266 271 278 282 288 289 285 284 289 294 292 284 273 264 260 251 240 224 211 206 212 216 217 219 224 228 231 232 232 235 239 243 244
258 259 258 251 245 245 246 247 250 255 259 264 268 275 278 279 279 276 279 281 287 287 275 267 259 254 252 247 242 236 230 227 227 226 227 231 236 236 237 238 243 247 248 250
259 261 261 259 256 252 252 252 254 256 259 262 266 271 277 279 276 270 271 275 280 277 269 266 261 254 254 253 251 248 245 243 241 239 238 241 242 243 243 248 251 253 254 255
257 259 261 264 263 259 255 255 255 256 259 263 265 266 270 273 274 271 270 272 273 268 264 262 258 255 255 255 254 253 251 250 249 248 247 248 248 250 252 255 257 256 256 257
255 258 260 262 264 262 257 254 254 256 257 262 264 263 265 268 268 269 269 266 265 260 256 254 256 256 258 255 254 255 255 254 254 253 252 253 255 256 256 258 259 259 258 258
255 257 260 261 261 261 259 256 255 256 257 259 260 260 261 261 262 266 265 261 263 258 255 254 255 254 257 253 252 254 256 256 254 256 257 258 259 260 260 261 262 263 262 262
256 257 259 260 260 260 260 258 256 255 255 256 258 259 259 259 262 260 260 261 261 256 253 253 253 252 255 253 253 255 256 258 260 259 261 261 261 263 263 264 265 266 267 266
257 258 259 259 260 261 259 257 255 254 254 254 255 255 255 257 259 257 256 259 259 255 254 253 252 249 251 253 254 256 258 258 262 260 260 262 264 266 266 267 268 269 269 269
257 258 259 259 259 259 259 258 256 253 252 250 251 251 253 254 254 254 253 254 252 250 252 253 253 255 253 253 254 257 259 261 263 263 264 265 266 268 268 268 269 270 271 271
256 255 257 259 259 260 259 256 252 251 250 248 248 247 249 249 248 249 250 250 250 251 251 253 253 252 251 253 256 259 261 263 265 264 266 267 269 272 272 272 272 274 275 274
254 254 256 257 257 258 257 254 252 250 246 244 243 244 246 247 246 246 248 248 247 249 251 252 250 249 251 255 258 262 265 267 267 268 270 271 274 275 275 274 275 277 278 277
255 254 255 256 255 256 252 251 249 245 242 240 241 242 243 243 244 245 244 246 248 250 250 249 248 249 252 256 259 262 265 268 270 270 273 276 276 277 278 277 277 279 279 279
253 253 254 254 251 248 243 240 239 239 238 237 238 237 238 241 243 243 245 247 249 248 247 247 248 250 254 258 261 264 267 270 273 275 277 278 279 279 280 279 279 279 279 279
256 254 251 246 243 239 237 236 233 232 233 235 234 234 234 238 239 242 244 245 247 249 248 248 248 251 256 262 266 268 270 273 276 278 278 278 278 279 279 280 281 281 280 281
252 247 241 235 234 234 232 230 225 223 225 228 230 229 230 234 238 238 239 243 247 247 245 246 251 256 261 266 269 272 274 277 278 279 280 281 281 281 282 283 282 282 282 282